<?xml version="1.0" encoding="UTF-8"?>
<gpx creator="Wikiloc - https://www.wikiloc.com" version="1.1" xmlns="http://www.topografix.com/GPX/1/1" xmlns:xsi="http://www.w3.org/2001/XMLSchema-instance" xsi:schemaLocation="http://www.topografix.com/GPX/1/1 http://www.topografix.com/GPX/1/1/gpx.xsd">
  <trk>
    <name>IBILALDIA AND 2017</name>
    <cmt></cmt>
    <desc></desc>
    <trkseg>
      <trkpt lat="43.216579" lon="-2.021169">
        <ele>54.0</ele>
        <time>2017-03-21T17:42:59Z</time>
      </trkpt>
      <trkpt lat="43.216791" lon="-2.021565">
        <ele>51.0</ele>
        <time>2017-03-21T17:43:39Z</time>
      </trkpt>
      <trkpt lat="43.217054" lon="-2.021672">
        <ele>54.0</ele>
        <time>2017-03-21T17:44:19Z</time>
      </trkpt>
      <trkpt lat="43.216709" lon="-2.022852">
        <ele>48.0</ele>
        <time>2017-03-21T17:44:59Z</time>
      </trkpt>
      <trkpt lat="43.217948" lon="-2.023841">
        <ele>55.0</ele>
        <time>2017-03-21T17:45:39Z</time>
      </trkpt>
      <trkpt lat="43.219087" lon="-2.024425">
        <ele>50.0</ele>
        <time>2017-03-21T17:46:19Z</time>
      </trkpt>
      <trkpt lat="43.219098" lon="-2.024572">
        <ele>50.0</ele>
        <time>2017-03-21T17:46:59Z</time>
      </trkpt>
      <trkpt lat="43.218276" lon="-2.026003">
        <ele>50.0</ele>
        <time>2017-03-21T17:47:39Z</time>
      </trkpt>
      <trkpt lat="43.218485" lon="-2.026729">
        <ele>50.0</ele>
        <time>2017-03-21T17:48:19Z</time>
      </trkpt>
      <trkpt lat="43.218295" lon="-2.027421">
        <ele>57.0</ele>
        <time>2017-03-21T17:48:59Z</time>
      </trkpt>
      <trkpt lat="43.216763" lon="-2.027675">
        <ele>84.0</ele>
        <time>2017-03-21T17:49:39Z</time>
      </trkpt>
      <trkpt lat="43.216013" lon="-2.029365">
        <ele>90.0</ele>
        <time>2017-03-21T17:50:19Z</time>
      </trkpt>
      <trkpt lat="43.215328" lon="-2.030285">
        <ele>95.0</ele>
        <time>2017-03-21T17:50:59Z</time>
      </trkpt>
      <trkpt lat="43.215160" lon="-2.031312">
        <ele>98.0</ele>
        <time>2017-03-21T17:51:39Z</time>
      </trkpt>
      <trkpt lat="43.215281" lon="-2.032508">
        <ele>101.0</ele>
        <time>2017-03-21T17:52:19Z</time>
      </trkpt>
      <trkpt lat="43.215874" lon="-2.033072">
        <ele>107.0</ele>
        <time>2017-03-21T17:52:59Z</time>
      </trkpt>
      <trkpt lat="43.215860" lon="-2.035330">
        <ele>124.0</ele>
        <time>2017-03-21T17:53:39Z</time>
      </trkpt>
      <trkpt lat="43.216822" lon="-2.037747">
        <ele>144.0</ele>
        <time>2017-03-21T17:54:19Z</time>
      </trkpt>
      <trkpt lat="43.216863" lon="-2.038168">
        <ele>147.0</ele>
        <time>2017-03-21T17:54:59Z</time>
      </trkpt>
      <trkpt lat="43.216566" lon="-2.038693">
        <ele>150.0</ele>
        <time>2017-03-21T17:55:39Z</time>
      </trkpt>
      <trkpt lat="43.216464" lon="-2.040128">
        <ele>159.0</ele>
        <time>2017-03-21T17:56:19Z</time>
      </trkpt>
      <trkpt lat="43.216673" lon="-2.041247">
        <ele>175.0</ele>
        <time>2017-03-21T17:56:59Z</time>
      </trkpt>
      <trkpt lat="43.216722" lon="-2.042829">
        <ele>204.0</ele>
        <time>2017-03-21T17:57:39Z</time>
      </trkpt>
      <trkpt lat="43.216888" lon="-2.042910">
        <ele>202.0</ele>
        <time>2017-03-21T17:58:19Z</time>
      </trkpt>
      <trkpt lat="43.216759" lon="-2.044211">
        <ele>225.0</ele>
        <time>2017-03-21T17:58:59Z</time>
      </trkpt>
      <trkpt lat="43.216888" lon="-2.045919">
        <ele>250.0</ele>
        <time>2017-03-21T17:59:39Z</time>
      </trkpt>
      <trkpt lat="43.216429" lon="-2.046595">
        <ele>262.0</ele>
        <time>2017-03-21T18:00:19Z</time>
      </trkpt>
      <trkpt lat="43.216263" lon="-2.047499">
        <ele>276.0</ele>
        <time>2017-03-21T18:00:59Z</time>
      </trkpt>
      <trkpt lat="43.215782" lon="-2.048183">
        <ele>282.0</ele>
        <time>2017-03-21T18:01:39Z</time>
      </trkpt>
      <trkpt lat="43.216446" lon="-2.048749">
        <ele>289.0</ele>
        <time>2017-03-21T18:02:19Z</time>
      </trkpt>
      <trkpt lat="43.216632" lon="-2.049151">
        <ele>299.0</ele>
        <time>2017-03-21T18:02:59Z</time>
      </trkpt>
      <trkpt lat="43.216841" lon="-2.048650">
        <ele>303.0</ele>
        <time>2017-03-21T18:03:39Z</time>
      </trkpt>
      <trkpt lat="43.216980" lon="-2.048746">
        <ele>303.0</ele>
        <time>2017-03-21T18:04:19Z</time>
      </trkpt>
      <trkpt lat="43.216968" lon="-2.050289">
        <ele>314.0</ele>
        <time>2017-03-21T18:04:59Z</time>
      </trkpt>
      <trkpt lat="43.217052" lon="-2.050624">
        <ele>316.0</ele>
        <time>2017-03-21T18:05:39Z</time>
      </trkpt>
      <trkpt lat="43.217451" lon="-2.050798">
        <ele>339.0</ele>
        <time>2017-03-21T18:06:19Z</time>
      </trkpt>
      <trkpt lat="43.217795" lon="-2.052027">
        <ele>351.0</ele>
        <time>2017-03-21T18:06:59Z</time>
      </trkpt>
      <trkpt lat="43.217742" lon="-2.052727">
        <ele>361.0</ele>
        <time>2017-03-21T18:07:39Z</time>
      </trkpt>
      <trkpt lat="43.217097" lon="-2.054044">
        <ele>361.0</ele>
        <time>2017-03-21T18:08:19Z</time>
      </trkpt>
      <trkpt lat="43.217154" lon="-2.054583">
        <ele>360.0</ele>
        <time>2017-03-21T18:08:59Z</time>
      </trkpt>
      <trkpt lat="43.217484" lon="-2.055162">
        <ele>354.0</ele>
        <time>2017-03-21T18:09:39Z</time>
      </trkpt>
      <trkpt lat="43.217895" lon="-2.055433">
        <ele>353.0</ele>
        <time>2017-03-21T18:10:19Z</time>
      </trkpt>
      <trkpt lat="43.218651" lon="-2.055339">
        <ele>383.0</ele>
        <time>2017-03-21T18:10:59Z</time>
      </trkpt>
      <trkpt lat="43.219249" lon="-2.055894">
        <ele>384.0</ele>
        <time>2017-03-21T18:11:39Z</time>
      </trkpt>
      <trkpt lat="43.219513" lon="-2.056230">
        <ele>388.0</ele>
        <time>2017-03-21T18:12:19Z</time>
      </trkpt>
      <trkpt lat="43.219803" lon="-2.057112">
        <ele>390.0</ele>
        <time>2017-03-21T18:12:59Z</time>
      </trkpt>
      <trkpt lat="43.219861" lon="-2.057834">
        <ele>399.0</ele>
        <time>2017-03-21T18:13:39Z</time>
      </trkpt>
      <trkpt lat="43.220164" lon="-2.057434">
        <ele>402.0</ele>
        <time>2017-03-21T18:14:19Z</time>
      </trkpt>
      <trkpt lat="43.220321" lon="-2.056739">
        <ele>402.0</ele>
        <time>2017-03-21T18:14:59Z</time>
      </trkpt>
      <trkpt lat="43.220094" lon="-2.054229">
        <ele>439.0</ele>
        <time>2017-03-21T18:15:39Z</time>
      </trkpt>
      <trkpt lat="43.220487" lon="-2.051595">
        <ele>469.0</ele>
        <time>2017-03-21T18:16:19Z</time>
      </trkpt>
      <trkpt lat="43.221562" lon="-2.048883">
        <ele>458.0</ele>
        <time>2017-03-21T18:16:59Z</time>
      </trkpt>
      <trkpt lat="43.222357" lon="-2.048331">
        <ele>458.0</ele>
        <time>2017-03-21T18:17:39Z</time>
      </trkpt>
      <trkpt lat="43.223774" lon="-2.046998">
        <ele>418.0</ele>
        <time>2017-03-21T18:18:19Z</time>
      </trkpt>
      <trkpt lat="43.225078" lon="-2.046603">
        <ele>393.0</ele>
        <time>2017-03-21T18:18:59Z</time>
      </trkpt>
      <trkpt lat="43.225699" lon="-2.047024">
        <ele>377.0</ele>
        <time>2017-03-21T18:19:39Z</time>
      </trkpt>
      <trkpt lat="43.225969" lon="-2.046914">
        <ele>377.0</ele>
        <time>2017-03-21T18:20:19Z</time>
      </trkpt>
      <trkpt lat="43.226747" lon="-2.045450">
        <ele>371.0</ele>
        <time>2017-03-21T18:20:59Z</time>
      </trkpt>
      <trkpt lat="43.227681" lon="-2.045082">
        <ele>366.0</ele>
        <time>2017-03-21T18:21:39Z</time>
      </trkpt>
      <trkpt lat="43.228514" lon="-2.045241">
        <ele>358.0</ele>
        <time>2017-03-21T18:22:19Z</time>
      </trkpt>
      <trkpt lat="43.228731" lon="-2.045715">
        <ele>348.0</ele>
        <time>2017-03-21T18:22:59Z</time>
      </trkpt>
      <trkpt lat="43.228971" lon="-2.045783">
        <ele>344.0</ele>
        <time>2017-03-21T18:23:39Z</time>
      </trkpt>
      <trkpt lat="43.230624" lon="-2.045882">
        <ele>351.0</ele>
        <time>2017-03-21T18:24:19Z</time>
      </trkpt>
      <trkpt lat="43.231033" lon="-2.045831">
        <ele>353.0</ele>
        <time>2017-03-21T18:24:59Z</time>
      </trkpt>
      <trkpt lat="43.231531" lon="-2.045549">
        <ele>349.0</ele>
        <time>2017-03-21T18:25:39Z</time>
      </trkpt>
      <trkpt lat="43.231775" lon="-2.045632">
        <ele>349.0</ele>
        <time>2017-03-21T18:26:19Z</time>
      </trkpt>
      <trkpt lat="43.231009" lon="-2.046378">
        <ele>351.0</ele>
        <time>2017-03-21T18:26:59Z</time>
      </trkpt>
      <trkpt lat="43.230593" lon="-2.047448">
        <ele>338.0</ele>
        <time>2017-03-21T18:27:39Z</time>
      </trkpt>
      <trkpt lat="43.230532" lon="-2.048508">
        <ele>335.0</ele>
        <time>2017-03-21T18:28:19Z</time>
      </trkpt>
      <trkpt lat="43.230355" lon="-2.049049">
        <ele>324.0</ele>
        <time>2017-03-21T18:28:59Z</time>
      </trkpt>
      <trkpt lat="43.230499" lon="-2.051064">
        <ele>306.0</ele>
        <time>2017-03-21T18:29:39Z</time>
      </trkpt>
      <trkpt lat="43.231009" lon="-2.051421">
        <ele>306.0</ele>
        <time>2017-03-21T18:30:19Z</time>
      </trkpt>
      <trkpt lat="43.232217" lon="-2.051294">
        <ele>304.0</ele>
        <time>2017-03-21T18:30:59Z</time>
      </trkpt>
      <trkpt lat="43.233757" lon="-2.052475">
        <ele>271.0</ele>
        <time>2017-03-21T18:31:39Z</time>
      </trkpt>
      <trkpt lat="43.234570" lon="-2.052754">
        <ele>267.0</ele>
        <time>2017-03-21T18:32:19Z</time>
      </trkpt>
      <trkpt lat="43.234738" lon="-2.053167">
        <ele>260.0</ele>
        <time>2017-03-21T18:32:59Z</time>
      </trkpt>
      <trkpt lat="43.234175" lon="-2.053792">
        <ele>245.0</ele>
        <time>2017-03-21T18:33:39Z</time>
      </trkpt>
      <trkpt lat="43.234154" lon="-2.053985">
        <ele>245.0</ele>
        <time>2017-03-21T18:34:19Z</time>
      </trkpt>
      <trkpt lat="43.234320" lon="-2.054100">
        <ele>237.0</ele>
        <time>2017-03-21T18:34:59Z</time>
      </trkpt>
      <trkpt lat="43.234789" lon="-2.054081">
        <ele>236.0</ele>
        <time>2017-03-21T18:35:39Z</time>
      </trkpt>
      <trkpt lat="43.236213" lon="-2.054859">
        <ele>209.0</ele>
        <time>2017-03-21T18:36:19Z</time>
      </trkpt>
      <trkpt lat="43.236752" lon="-2.056284">
        <ele>209.0</ele>
        <time>2017-03-21T18:36:59Z</time>
      </trkpt>
      <trkpt lat="43.237169" lon="-2.056284">
        <ele>206.0</ele>
        <time>2017-03-21T18:37:39Z</time>
      </trkpt>
      <trkpt lat="43.237776" lon="-2.056174">
        <ele>198.0</ele>
        <time>2017-03-21T18:38:19Z</time>
      </trkpt>
      <trkpt lat="43.239258" lon="-2.056780">
        <ele>181.0</ele>
        <time>2017-03-21T18:38:59Z</time>
      </trkpt>
      <trkpt lat="43.240134" lon="-2.056542">
        <ele>197.0</ele>
        <time>2017-03-21T18:39:39Z</time>
      </trkpt>
      <trkpt lat="43.240471" lon="-2.056156">
        <ele>187.0</ele>
        <time>2017-03-21T18:40:19Z</time>
      </trkpt>
      <trkpt lat="43.241293" lon="-2.056633">
        <ele>174.0</ele>
        <time>2017-03-21T18:40:59Z</time>
      </trkpt>
      <trkpt lat="43.241926" lon="-2.055972">
        <ele>174.0</ele>
        <time>2017-03-21T18:41:39Z</time>
      </trkpt>
      <trkpt lat="43.241077" lon="-2.055825">
        <ele>165.0</ele>
        <time>2017-03-21T18:42:19Z</time>
      </trkpt>
      <trkpt lat="43.241791" lon="-2.054134">
        <ele>141.0</ele>
        <time>2017-03-21T18:42:59Z</time>
      </trkpt>
      <trkpt lat="43.241859" lon="-2.053620">
        <ele>139.0</ele>
        <time>2017-03-21T18:43:39Z</time>
      </trkpt>
      <trkpt lat="43.241739" lon="-2.052724">
        <ele>133.0</ele>
        <time>2017-03-21T18:44:19Z</time>
      </trkpt>
      <trkpt lat="43.241966" lon="-2.052628">
        <ele>125.0</ele>
        <time>2017-03-21T18:44:59Z</time>
      </trkpt>
      <trkpt lat="43.242654" lon="-2.051678">
        <ele>120.0</ele>
        <time>2017-03-21T18:45:39Z</time>
      </trkpt>
      <trkpt lat="43.243230" lon="-2.051646">
        <ele>122.0</ele>
        <time>2017-03-21T18:46:19Z</time>
      </trkpt>
      <trkpt lat="43.243718" lon="-2.051300">
        <ele>119.0</ele>
        <time>2017-03-21T18:46:59Z</time>
      </trkpt>
      <trkpt lat="43.244195" lon="-2.050146">
        <ele>110.0</ele>
        <time>2017-03-21T18:47:39Z</time>
      </trkpt>
      <trkpt lat="43.244891" lon="-2.049125">
        <ele>118.0</ele>
        <time>2017-03-21T18:48:19Z</time>
      </trkpt>
      <trkpt lat="43.245340" lon="-2.048610">
        <ele>121.0</ele>
        <time>2017-03-21T18:48:59Z</time>
      </trkpt>
      <trkpt lat="43.245737" lon="-2.048569">
        <ele>154.0</ele>
        <time>2017-03-21T18:49:39Z</time>
      </trkpt>
      <trkpt lat="43.245762" lon="-2.048285">
        <ele>146.0</ele>
        <time>2017-03-21T18:50:19Z</time>
      </trkpt>
      <trkpt lat="43.245541" lon="-2.047928">
        <ele>122.0</ele>
        <time>2017-03-21T18:50:59Z</time>
      </trkpt>
      <trkpt lat="43.245832" lon="-2.046507">
        <ele>105.0</ele>
        <time>2017-03-21T18:51:39Z</time>
      </trkpt>
      <trkpt lat="43.246268" lon="-2.045807">
        <ele>129.0</ele>
        <time>2017-03-21T18:52:19Z</time>
      </trkpt>
      <trkpt lat="43.246807" lon="-2.045321">
        <ele>149.0</ele>
        <time>2017-03-21T18:52:59Z</time>
      </trkpt>
      <trkpt lat="43.246761" lon="-2.044637">
        <ele>124.0</ele>
        <time>2017-03-21T18:53:39Z</time>
      </trkpt>
      <trkpt lat="43.247771" lon="-2.043841">
        <ele>145.0</ele>
        <time>2017-03-21T18:54:19Z</time>
      </trkpt>
      <trkpt lat="43.247599" lon="-2.043071">
        <ele>134.0</ele>
        <time>2017-03-21T18:54:59Z</time>
      </trkpt>
      <trkpt lat="43.247126" lon="-2.042282">
        <ele>128.0</ele>
        <time>2017-03-21T18:55:39Z</time>
      </trkpt>
      <trkpt lat="43.247169" lon="-2.042162">
        <ele>128.0</ele>
        <time>2017-03-21T18:56:19Z</time>
      </trkpt>
      <trkpt lat="43.247577" lon="-2.042212">
        <ele>137.0</ele>
        <time>2017-03-21T18:56:59Z</time>
      </trkpt>
      <trkpt lat="43.247714" lon="-2.042070">
        <ele>147.0</ele>
        <time>2017-03-21T18:57:39Z</time>
      </trkpt>
      <trkpt lat="43.247759" lon="-2.040772">
        <ele>151.0</ele>
        <time>2017-03-21T18:58:19Z</time>
      </trkpt>
      <trkpt lat="43.247651" lon="-2.039992">
        <ele>163.0</ele>
        <time>2017-03-21T18:58:59Z</time>
      </trkpt>
      <trkpt lat="43.247311" lon="-2.039053">
        <ele>162.0</ele>
        <time>2017-03-21T18:59:39Z</time>
      </trkpt>
      <trkpt lat="43.247335" lon="-2.038447">
        <ele>174.0</ele>
        <time>2017-03-21T19:00:19Z</time>
      </trkpt>
      <trkpt lat="43.247646" lon="-2.037425">
        <ele>206.0</ele>
        <time>2017-03-21T19:00:59Z</time>
      </trkpt>
      <trkpt lat="43.247038" lon="-2.035131">
        <ele>206.0</ele>
        <time>2017-03-21T19:01:39Z</time>
      </trkpt>
      <trkpt lat="43.247104" lon="-2.034531">
        <ele>213.0</ele>
        <time>2017-03-21T19:02:19Z</time>
      </trkpt>
      <trkpt lat="43.249400" lon="-2.032511">
        <ele>171.0</ele>
        <time>2017-03-21T19:02:59Z</time>
      </trkpt>
      <trkpt lat="43.249878" lon="-2.031996">
        <ele>158.0</ele>
        <time>2017-03-21T19:03:39Z</time>
      </trkpt>
      <trkpt lat="43.250450" lon="-2.031004">
        <ele>145.0</ele>
        <time>2017-03-21T19:04:19Z</time>
      </trkpt>
      <trkpt lat="43.251490" lon="-2.030218">
        <ele>134.0</ele>
        <time>2017-03-21T19:04:59Z</time>
      </trkpt>
      <trkpt lat="43.252097" lon="-2.028458">
        <ele>104.0</ele>
        <time>2017-03-21T19:05:39Z</time>
      </trkpt>
      <trkpt lat="43.253589" lon="-2.026280">
        <ele>86.0</ele>
        <time>2017-03-21T19:06:19Z</time>
      </trkpt>
      <trkpt lat="43.254849" lon="-2.025315">
        <ele>68.0</ele>
        <time>2017-03-21T19:06:59Z</time>
      </trkpt>
      <trkpt lat="43.255352" lon="-2.025754">
        <ele>66.0</ele>
        <time>2017-03-21T19:07:39Z</time>
      </trkpt>
      <trkpt lat="43.255938" lon="-2.025025">
        <ele>59.0</ele>
        <time>2017-03-21T19:08:19Z</time>
      </trkpt>
      <trkpt lat="43.256446" lon="-2.024977">
        <ele>55.0</ele>
        <time>2017-03-21T19:08:59Z</time>
      </trkpt>
      <trkpt lat="43.256391" lon="-2.024451">
        <ele>53.0</ele>
        <time>2017-03-21T19:09:39Z</time>
      </trkpt>
      <trkpt lat="43.255938" lon="-2.023984">
        <ele>52.0</ele>
        <time>2017-03-21T19:10:19Z</time>
      </trkpt>
      <trkpt lat="43.254998" lon="-2.024022">
        <ele>52.0</ele>
        <time>2017-03-21T19:10:59Z</time>
      </trkpt>
      <trkpt lat="43.254413" lon="-2.023426">
        <ele>46.0</ele>
        <time>2017-03-21T19:11:39Z</time>
      </trkpt>
      <trkpt lat="43.253971" lon="-2.023276">
        <ele>45.0</ele>
        <time>2017-03-21T19:12:19Z</time>
      </trkpt>
      <trkpt lat="43.253855" lon="-2.022960">
        <ele>42.0</ele>
        <time>2017-03-21T19:12:59Z</time>
      </trkpt>
      <trkpt lat="43.253921" lon="-2.022466">
        <ele>35.0</ele>
        <time>2017-03-21T19:13:39Z</time>
      </trkpt>
      <trkpt lat="43.253678" lon="-2.022187">
        <ele>31.0</ele>
        <time>2017-03-21T19:14:19Z</time>
      </trkpt>
      <trkpt lat="43.253523" lon="-2.021511">
        <ele>28.0</ele>
        <time>2017-03-21T19:14:59Z</time>
      </trkpt>
      <trkpt lat="43.253384" lon="-2.019819">
        <ele>31.0</ele>
        <time>2017-03-21T19:15:39Z</time>
      </trkpt>
      <trkpt lat="43.253541" lon="-2.019532">
        <ele>35.0</ele>
        <time>2017-03-21T19:16:19Z</time>
      </trkpt>
      <trkpt lat="43.253386" lon="-2.018829">
        <ele>43.0</ele>
        <time>2017-03-21T19:16:59Z</time>
      </trkpt>
      <trkpt lat="43.253976" lon="-2.018936">
        <ele>34.0</ele>
        <time>2017-03-21T19:17:39Z</time>
      </trkpt>
      <trkpt lat="43.255511" lon="-2.018394">
        <ele>27.0</ele>
        <time>2017-03-21T19:18:19Z</time>
      </trkpt>
      <trkpt lat="43.255355" lon="-2.017429">
        <ele>38.0</ele>
        <time>2017-03-21T19:18:59Z</time>
      </trkpt>
      <trkpt lat="43.255515" lon="-2.016957">
        <ele>38.0</ele>
        <time>2017-03-21T19:19:39Z</time>
      </trkpt>
      <trkpt lat="43.255289" lon="-2.016469">
        <ele>41.0</ele>
        <time>2017-03-21T19:20:19Z</time>
      </trkpt>
      <trkpt lat="43.255324" lon="-2.016179">
        <ele>43.0</ele>
        <time>2017-03-21T19:20:59Z</time>
      </trkpt>
      <trkpt lat="43.256047" lon="-2.015090">
        <ele>62.0</ele>
        <time>2017-03-21T19:21:39Z</time>
      </trkpt>
      <trkpt lat="43.255843" lon="-2.013867">
        <ele>72.0</ele>
        <time>2017-03-21T19:22:19Z</time>
      </trkpt>
      <trkpt lat="43.255672" lon="-2.014033">
        <ele>74.0</ele>
        <time>2017-03-21T19:22:59Z</time>
      </trkpt>
      <trkpt lat="43.255472" lon="-2.014006">
        <ele>79.0</ele>
        <time>2017-03-21T19:23:39Z</time>
      </trkpt>
      <trkpt lat="43.254328" lon="-2.013454">
        <ele>103.0</ele>
        <time>2017-03-21T19:24:19Z</time>
      </trkpt>
      <trkpt lat="43.251831" lon="-2.012762">
        <ele>138.0</ele>
        <time>2017-03-21T19:24:59Z</time>
      </trkpt>
      <trkpt lat="43.250960" lon="-2.013481">
        <ele>165.0</ele>
        <time>2017-03-21T19:25:39Z</time>
      </trkpt>
      <trkpt lat="43.250491" lon="-2.014731">
        <ele>145.0</ele>
        <time>2017-03-21T19:26:19Z</time>
      </trkpt>
      <trkpt lat="43.249483" lon="-2.015342">
        <ele>154.0</ele>
        <time>2017-03-21T19:26:59Z</time>
      </trkpt>
      <trkpt lat="43.248877" lon="-2.015460">
        <ele>152.0</ele>
        <time>2017-03-21T19:27:39Z</time>
      </trkpt>
      <trkpt lat="43.248748" lon="-2.015144">
        <ele>145.0</ele>
        <time>2017-03-21T19:28:19Z</time>
      </trkpt>
      <trkpt lat="43.248709" lon="-2.014071">
        <ele>152.0</ele>
        <time>2017-03-21T19:28:59Z</time>
      </trkpt>
      <trkpt lat="43.248381" lon="-2.013341">
        <ele>149.0</ele>
        <time>2017-03-21T19:29:39Z</time>
      </trkpt>
      <trkpt lat="43.246716" lon="-2.010927">
        <ele>165.0</ele>
        <time>2017-03-21T19:30:19Z</time>
      </trkpt>
      <trkpt lat="43.246134" lon="-2.009575">
        <ele>177.0</ele>
        <time>2017-03-21T19:30:59Z</time>
      </trkpt>
      <trkpt lat="43.245790" lon="-2.009146">
        <ele>183.0</ele>
        <time>2017-03-21T19:31:39Z</time>
      </trkpt>
      <trkpt lat="43.245724" lon="-2.008454">
        <ele>172.0</ele>
        <time>2017-03-21T19:32:19Z</time>
      </trkpt>
      <trkpt lat="43.245255" lon="-2.008186">
        <ele>183.0</ele>
        <time>2017-03-21T19:32:59Z</time>
      </trkpt>
      <trkpt lat="43.245263" lon="-2.007558">
        <ele>175.0</ele>
        <time>2017-03-21T19:33:39Z</time>
      </trkpt>
      <trkpt lat="43.244942" lon="-2.006786">
        <ele>173.0</ele>
        <time>2017-03-21T19:34:19Z</time>
      </trkpt>
      <trkpt lat="43.244145" lon="-2.006239">
        <ele>206.0</ele>
        <time>2017-03-21T19:34:59Z</time>
      </trkpt>
      <trkpt lat="43.244282" lon="-2.005311">
        <ele>201.0</ele>
        <time>2017-03-21T19:35:39Z</time>
      </trkpt>
      <trkpt lat="43.244180" lon="-2.004672">
        <ele>202.0</ele>
        <time>2017-03-21T19:36:19Z</time>
      </trkpt>
      <trkpt lat="43.244008" lon="-2.004731">
        <ele>206.0</ele>
        <time>2017-03-21T19:36:59Z</time>
      </trkpt>
      <trkpt lat="43.243778" lon="-2.005230">
        <ele>209.0</ele>
        <time>2017-03-21T19:37:39Z</time>
      </trkpt>
      <trkpt lat="43.243383" lon="-2.004919">
        <ele>212.0</ele>
        <time>2017-03-21T19:38:19Z</time>
      </trkpt>
      <trkpt lat="43.242926" lon="-2.005965">
        <ele>228.0</ele>
        <time>2017-03-21T19:38:59Z</time>
      </trkpt>
      <trkpt lat="43.243117" lon="-2.007451">
        <ele>262.0</ele>
        <time>2017-03-21T19:39:39Z</time>
      </trkpt>
      <trkpt lat="43.242852" lon="-2.008792">
        <ele>285.0</ele>
        <time>2017-03-21T19:40:19Z</time>
      </trkpt>
      <trkpt lat="43.242617" lon="-2.008985">
        <ele>293.0</ele>
        <time>2017-03-21T19:40:59Z</time>
      </trkpt>
      <trkpt lat="43.242125" lon="-2.008932">
        <ele>298.0</ele>
        <time>2017-03-21T19:41:39Z</time>
      </trkpt>
      <trkpt lat="43.241570" lon="-2.010369">
        <ele>312.0</ele>
        <time>2017-03-21T19:42:19Z</time>
      </trkpt>
      <trkpt lat="43.240902" lon="-2.011592">
        <ele>328.0</ele>
        <time>2017-03-21T19:42:59Z</time>
      </trkpt>
      <trkpt lat="43.240253" lon="-2.012097">
        <ele>347.0</ele>
        <time>2017-03-21T19:43:39Z</time>
      </trkpt>
      <trkpt lat="43.240008" lon="-2.012433">
        <ele>361.0</ele>
        <time>2017-03-21T19:44:19Z</time>
      </trkpt>
      <trkpt lat="43.239541" lon="-2.012458">
        <ele>377.0</ele>
        <time>2017-03-21T19:44:59Z</time>
      </trkpt>
      <trkpt lat="43.239289" lon="-2.012776">
        <ele>383.0</ele>
        <time>2017-03-21T19:45:39Z</time>
      </trkpt>
      <trkpt lat="43.239047" lon="-2.013854">
        <ele>399.0</ele>
        <time>2017-03-21T19:46:19Z</time>
      </trkpt>
      <trkpt lat="43.238975" lon="-2.014332">
        <ele>404.0</ele>
        <time>2017-03-21T19:46:59Z</time>
      </trkpt>
      <trkpt lat="43.238499" lon="-2.015153">
        <ele>420.0</ele>
        <time>2017-03-21T19:47:39Z</time>
      </trkpt>
      <trkpt lat="43.237852" lon="-2.016206">
        <ele>406.0</ele>
        <time>2017-03-21T19:48:19Z</time>
      </trkpt>
      <trkpt lat="43.237672" lon="-2.016745">
        <ele>317.0</ele>
        <time>2017-03-21T19:54:19Z</time>
      </trkpt>
      <trkpt lat="43.237367" lon="-2.016427">
        <ele>305.0</ele>
        <time>2017-03-21T19:54:59Z</time>
      </trkpt>
      <trkpt lat="43.237106" lon="-2.016390">
        <ele>301.0</ele>
        <time>2017-03-21T19:55:39Z</time>
      </trkpt>
      <trkpt lat="43.236666" lon="-2.017762">
        <ele>401.1</ele>
        <time>2017-03-22T23:14:41Z</time>
      </trkpt>
      <trkpt lat="43.236414" lon="-2.017640">
        <ele>391.9</ele>
        <time>2017-03-22T23:15:01Z</time>
      </trkpt>
      <trkpt lat="43.236289" lon="-2.017480">
        <ele>388.8</ele>
        <time>2017-03-22T23:15:21Z</time>
      </trkpt>
      <trkpt lat="43.236082" lon="-2.017542">
        <ele>382.0</ele>
        <time>2017-03-22T23:15:41Z</time>
      </trkpt>
      <trkpt lat="43.235884" lon="-2.017652">
        <ele>374.2</ele>
        <time>2017-03-22T23:16:01Z</time>
      </trkpt>
      <trkpt lat="43.235678" lon="-2.017762">
        <ele>365.3</ele>
        <time>2017-03-22T23:16:21Z</time>
      </trkpt>
      <trkpt lat="43.235462" lon="-2.017848">
        <ele>354.9</ele>
        <time>2017-03-22T23:16:41Z</time>
      </trkpt>
      <trkpt lat="43.235175" lon="-2.017762">
        <ele>343.7</ele>
        <time>2017-03-22T23:17:01Z</time>
      </trkpt>
      <trkpt lat="43.235148" lon="-2.017309">
        <ele>348.4</ele>
        <time>2017-03-22T23:17:21Z</time>
      </trkpt>
      <trkpt lat="43.235247" lon="-2.016807">
        <ele>356.4</ele>
        <time>2017-03-22T23:17:41Z</time>
      </trkpt>
      <trkpt lat="43.235381" lon="-2.016451">
        <ele>362.6</ele>
        <time>2017-03-22T23:18:01Z</time>
      </trkpt>
      <trkpt lat="43.235633" lon="-2.016059">
        <ele>366.9</ele>
        <time>2017-03-22T23:18:21Z</time>
      </trkpt>
      <trkpt lat="43.235803" lon="-2.015716">
        <ele>367.5</ele>
        <time>2017-03-22T23:18:41Z</time>
      </trkpt>
      <trkpt lat="43.235893" lon="-2.015092">
        <ele>363.3</ele>
        <time>2017-03-22T23:19:01Z</time>
      </trkpt>
      <trkpt lat="43.235983" lon="-2.014675">
        <ele>363.8</ele>
        <time>2017-03-22T23:19:21Z</time>
      </trkpt>
      <trkpt lat="43.236046" lon="-2.013989">
        <ele>356.4</ele>
        <time>2017-03-22T23:19:41Z</time>
      </trkpt>
      <trkpt lat="43.236136" lon="-2.013426">
        <ele>343.2</ele>
        <time>2017-03-22T23:20:01Z</time>
      </trkpt>
      <trkpt lat="43.236307" lon="-2.013144">
        <ele>335.8</ele>
        <time>2017-03-22T23:20:21Z</time>
      </trkpt>
      <trkpt lat="43.236630" lon="-2.013058">
        <ele>332.7</ele>
        <time>2017-03-22T23:20:41Z</time>
      </trkpt>
      <trkpt lat="43.237213" lon="-2.011567">
        <ele>330.8</ele>
        <time>2017-03-22T23:21:01Z</time>
      </trkpt>
      <trkpt lat="43.236720" lon="-2.011552">
        <ele>297.1</ele>
        <time>2017-03-22T23:21:21Z</time>
      </trkpt>
      <trkpt lat="43.236298" lon="-2.011723">
        <ele>291.2</ele>
        <time>2017-03-22T23:21:41Z</time>
      </trkpt>
      <trkpt lat="43.235956" lon="-2.011772">
        <ele>288.3</ele>
        <time>2017-03-22T23:22:01Z</time>
      </trkpt>
      <trkpt lat="43.235669" lon="-2.011748">
        <ele>285.6</ele>
        <time>2017-03-22T23:22:21Z</time>
      </trkpt>
      <trkpt lat="43.235345" lon="-2.011539">
        <ele>275.7</ele>
        <time>2017-03-22T23:22:41Z</time>
      </trkpt>
      <trkpt lat="43.235067" lon="-2.011319">
        <ele>268.7</ele>
        <time>2017-03-22T23:23:01Z</time>
      </trkpt>
      <trkpt lat="43.234842" lon="-2.010927">
        <ele>259.0</ele>
        <time>2017-03-22T23:23:21Z</time>
      </trkpt>
      <trkpt lat="43.234843" lon="-2.010967">
        <ele>268.0</ele>
        <time>2017-03-21T19:56:59Z</time>
      </trkpt>
      <trkpt lat="43.234593" lon="-2.008814">
        <ele>239.0</ele>
        <time>2017-03-21T19:57:39Z</time>
      </trkpt>
      <trkpt lat="43.233611" lon="-2.008307">
        <ele>212.0</ele>
        <time>2017-03-21T19:58:19Z</time>
      </trkpt>
      <trkpt lat="43.233304" lon="-2.007926">
        <ele>201.0</ele>
        <time>2017-03-21T19:58:59Z</time>
      </trkpt>
      <trkpt lat="43.231980" lon="-2.008988">
        <ele>175.0</ele>
        <time>2017-03-21T19:59:39Z</time>
      </trkpt>
      <trkpt lat="43.231436" lon="-2.008846">
        <ele>157.0</ele>
        <time>2017-03-21T20:00:19Z</time>
      </trkpt>
      <trkpt lat="43.230905" lon="-2.009184">
        <ele>138.0</ele>
        <time>2017-03-21T20:00:59Z</time>
      </trkpt>
      <trkpt lat="43.230742" lon="-2.010286">
        <ele>150.0</ele>
        <time>2017-03-21T20:01:39Z</time>
      </trkpt>
      <trkpt lat="43.230471" lon="-2.010997">
        <ele>154.0</ele>
        <time>2017-03-21T20:02:19Z</time>
      </trkpt>
      <trkpt lat="43.228852" lon="-2.011855">
        <ele>115.0</ele>
        <time>2017-03-21T20:02:59Z</time>
      </trkpt>
      <trkpt lat="43.228557" lon="-2.011681">
        <ele>107.0</ele>
        <time>2017-03-21T20:03:39Z</time>
      </trkpt>
      <trkpt lat="43.228117" lon="-2.012767">
        <ele>93.0</ele>
        <time>2017-03-21T20:04:19Z</time>
      </trkpt>
      <trkpt lat="43.227855" lon="-2.012429">
        <ele>88.0</ele>
        <time>2017-03-21T20:04:59Z</time>
      </trkpt>
      <trkpt lat="43.227073" lon="-2.012150">
        <ele>72.0</ele>
        <time>2017-03-21T20:05:39Z</time>
      </trkpt>
      <trkpt lat="43.226874" lon="-2.011651">
        <ele>67.0</ele>
        <time>2017-03-21T20:06:19Z</time>
      </trkpt>
      <trkpt lat="43.226885" lon="-2.010825">
        <ele>61.0</ele>
        <time>2017-03-21T20:06:59Z</time>
      </trkpt>
      <trkpt lat="43.226630" lon="-2.010434">
        <ele>56.0</ele>
        <time>2017-03-21T20:07:39Z</time>
      </trkpt>
      <trkpt lat="43.227404" lon="-2.008685">
        <ele>61.0</ele>
        <time>2017-03-21T20:08:19Z</time>
      </trkpt>
      <trkpt lat="43.227393" lon="-2.007794">
        <ele>59.0</ele>
        <time>2017-03-21T20:08:59Z</time>
      </trkpt>
      <trkpt lat="43.226968" lon="-2.007006">
        <ele>60.0</ele>
        <time>2017-03-21T20:09:39Z</time>
      </trkpt>
      <trkpt lat="43.226715" lon="-2.006129">
        <ele>67.0</ele>
        <time>2017-03-21T20:10:19Z</time>
      </trkpt>
      <trkpt lat="43.225857" lon="-2.005289">
        <ele>69.0</ele>
        <time>2017-03-21T20:10:59Z</time>
      </trkpt>
      <trkpt lat="43.225828" lon="-2.004914">
        <ele>70.0</ele>
        <time>2017-03-21T20:11:39Z</time>
      </trkpt>
      <trkpt lat="43.225394" lon="-2.005265">
        <ele>67.0</ele>
        <time>2017-03-21T20:12:19Z</time>
      </trkpt>
      <trkpt lat="43.224971" lon="-2.005182">
        <ele>68.0</ele>
        <time>2017-03-21T20:12:59Z</time>
      </trkpt>
      <trkpt lat="43.225372" lon="-2.004460">
        <ele>75.0</ele>
        <time>2017-03-21T20:13:39Z</time>
      </trkpt>
      <trkpt lat="43.225372" lon="-2.003919">
        <ele>82.0</ele>
        <time>2017-03-21T20:14:19Z</time>
      </trkpt>
      <trkpt lat="43.225007" lon="-2.003178">
        <ele>99.0</ele>
        <time>2017-03-21T20:14:59Z</time>
      </trkpt>
      <trkpt lat="43.224841" lon="-2.002368">
        <ele>110.0</ele>
        <time>2017-03-21T20:15:39Z</time>
      </trkpt>
      <trkpt lat="43.224005" lon="-2.001033">
        <ele>111.0</ele>
        <time>2017-03-21T20:16:19Z</time>
      </trkpt>
      <trkpt lat="43.223970" lon="-1.999573">
        <ele>127.0</ele>
        <time>2017-03-21T20:16:59Z</time>
      </trkpt>
      <trkpt lat="43.224277" lon="-1.998731">
        <ele>146.0</ele>
        <time>2017-03-21T20:17:39Z</time>
      </trkpt>
      <trkpt lat="43.224226" lon="-1.997991">
        <ele>157.0</ele>
        <time>2017-03-21T20:18:19Z</time>
      </trkpt>
      <trkpt lat="43.224355" lon="-1.997363">
        <ele>163.0</ele>
        <time>2017-03-21T20:18:59Z</time>
      </trkpt>
      <trkpt lat="43.224237" lon="-1.996674">
        <ele>182.0</ele>
        <time>2017-03-21T20:19:39Z</time>
      </trkpt>
      <trkpt lat="43.223983" lon="-1.996258">
        <ele>188.0</ele>
        <time>2017-03-21T20:20:19Z</time>
      </trkpt>
      <trkpt lat="43.223361" lon="-1.996245">
        <ele>187.0</ele>
        <time>2017-03-21T20:20:59Z</time>
      </trkpt>
      <trkpt lat="43.222938" lon="-1.994496">
        <ele>208.0</ele>
        <time>2017-03-21T20:21:39Z</time>
      </trkpt>
      <trkpt lat="43.221442" lon="-1.992978">
        <ele>217.0</ele>
        <time>2017-03-21T20:22:19Z</time>
      </trkpt>
      <trkpt lat="43.221482" lon="-1.991690">
        <ele>234.0</ele>
        <time>2017-03-21T20:22:59Z</time>
      </trkpt>
      <trkpt lat="43.221779" lon="-1.990017">
        <ele>254.0</ele>
        <time>2017-03-21T20:23:39Z</time>
      </trkpt>
      <trkpt lat="43.221616" lon="-1.988901">
        <ele>272.0</ele>
        <time>2017-03-21T20:24:19Z</time>
      </trkpt>
      <trkpt lat="43.221677" lon="-1.987678">
        <ele>299.0</ele>
        <time>2017-03-21T20:24:59Z</time>
      </trkpt>
      <trkpt lat="43.221296" lon="-1.986938">
        <ele>317.0</ele>
        <time>2017-03-21T20:25:39Z</time>
      </trkpt>
      <trkpt lat="43.220366" lon="-1.986873">
        <ele>321.0</ele>
        <time>2017-03-21T20:26:19Z</time>
      </trkpt>
      <trkpt lat="43.220132" lon="-1.986573">
        <ele>321.0</ele>
        <time>2017-03-21T20:26:59Z</time>
      </trkpt>
      <trkpt lat="43.219449" lon="-1.984084">
        <ele>312.0</ele>
        <time>2017-03-21T20:27:39Z</time>
      </trkpt>
      <trkpt lat="43.219738" lon="-1.981262">
        <ele>313.0</ele>
        <time>2017-03-21T20:28:19Z</time>
      </trkpt>
      <trkpt lat="43.219647" lon="-1.979840">
        <ele>305.0</ele>
        <time>2017-03-21T20:28:59Z</time>
      </trkpt>
      <trkpt lat="43.220065" lon="-1.978033">
        <ele>302.0</ele>
        <time>2017-03-21T20:29:39Z</time>
      </trkpt>
      <trkpt lat="43.220300" lon="-1.976021">
        <ele>301.0</ele>
        <time>2017-03-21T20:30:19Z</time>
      </trkpt>
      <trkpt lat="43.219811" lon="-1.975216">
        <ele>295.0</ele>
        <time>2017-03-21T20:30:59Z</time>
      </trkpt>
      <trkpt lat="43.219762" lon="-1.974803">
        <ele>298.0</ele>
        <time>2017-03-21T20:31:39Z</time>
      </trkpt>
      <trkpt lat="43.219879" lon="-1.973494">
        <ele>310.0</ele>
        <time>2017-03-21T20:32:19Z</time>
      </trkpt>
      <trkpt lat="43.219668" lon="-1.973269">
        <ele>316.0</ele>
        <time>2017-03-21T20:32:59Z</time>
      </trkpt>
      <trkpt lat="43.219949" lon="-1.972915">
        <ele>328.0</ele>
        <time>2017-03-21T20:33:39Z</time>
      </trkpt>
      <trkpt lat="43.219566" lon="-1.972443">
        <ele>335.0</ele>
        <time>2017-03-21T20:34:19Z</time>
      </trkpt>
      <trkpt lat="43.219246" lon="-1.972389">
        <ele>336.0</ele>
        <time>2017-03-21T20:34:59Z</time>
      </trkpt>
      <trkpt lat="43.219201" lon="-1.972188">
        <ele>342.0</ele>
        <time>2017-03-21T20:35:39Z</time>
      </trkpt>
      <trkpt lat="43.218954" lon="-1.972049">
        <ele>349.0</ele>
        <time>2017-03-21T20:36:19Z</time>
      </trkpt>
      <trkpt lat="43.218624" lon="-1.971359">
        <ele>361.0</ele>
        <time>2017-03-21T20:36:59Z</time>
      </trkpt>
      <trkpt lat="43.217630" lon="-1.970973">
        <ele>363.0</ele>
        <time>2017-03-21T20:37:39Z</time>
      </trkpt>
      <trkpt lat="43.217329" lon="-1.969938">
        <ele>383.0</ele>
        <time>2017-03-21T20:38:19Z</time>
      </trkpt>
      <trkpt lat="43.217258" lon="-1.966577">
        <ele>436.0</ele>
        <time>2017-03-21T20:38:59Z</time>
      </trkpt>
      <trkpt lat="43.217146" lon="-1.966209">
        <ele>446.0</ele>
        <time>2017-03-21T20:39:39Z</time>
      </trkpt>
      <trkpt lat="43.216814" lon="-1.965831">
        <ele>447.0</ele>
        <time>2017-03-21T20:40:19Z</time>
      </trkpt>
      <trkpt lat="43.216110" lon="-1.966330">
        <ele>447.0</ele>
        <time>2017-03-21T20:40:59Z</time>
      </trkpt>
      <trkpt lat="43.215295" lon="-1.966590">
        <ele>462.0</ele>
        <time>2017-03-21T20:41:39Z</time>
      </trkpt>
      <trkpt lat="43.214060" lon="-1.965727">
        <ele>494.0</ele>
        <time>2017-03-21T20:42:19Z</time>
      </trkpt>
      <trkpt lat="43.213382" lon="-1.965662">
        <ele>521.0</ele>
        <time>2017-03-21T20:42:59Z</time>
      </trkpt>
      <trkpt lat="43.212736" lon="-1.965182">
        <ele>532.0</ele>
        <time>2017-03-21T20:43:39Z</time>
      </trkpt>
      <trkpt lat="43.212214" lon="-1.965008">
        <ele>541.0</ele>
        <time>2017-03-21T20:44:19Z</time>
      </trkpt>
      <trkpt lat="43.212060" lon="-1.965311">
        <ele>546.0</ele>
        <time>2017-03-21T20:44:59Z</time>
      </trkpt>
      <trkpt lat="43.212177" lon="-1.965627">
        <ele>539.0</ele>
        <time>2017-03-21T20:45:39Z</time>
      </trkpt>
      <trkpt lat="43.211167" lon="-1.965356">
        <ele>563.0</ele>
        <time>2017-03-21T20:46:19Z</time>
      </trkpt>
      <trkpt lat="43.210046" lon="-1.965896">
        <ele>579.0</ele>
        <time>2017-03-21T20:46:59Z</time>
      </trkpt>
      <trkpt lat="43.209505" lon="-1.965582">
        <ele>602.0</ele>
        <time>2017-03-21T20:47:39Z</time>
      </trkpt>
      <trkpt lat="43.208394" lon="-1.966614">
        <ele>610.0</ele>
        <time>2017-03-21T20:48:19Z</time>
      </trkpt>
      <trkpt lat="43.207133" lon="-1.967239">
        <ele>633.0</ele>
        <time>2017-03-21T20:48:59Z</time>
      </trkpt>
      <trkpt lat="43.206166" lon="-1.967285">
        <ele>639.0</ele>
        <time>2017-03-21T20:49:39Z</time>
      </trkpt>
      <trkpt lat="43.205720" lon="-1.967108">
        <ele>635.0</ele>
        <time>2017-03-21T20:50:19Z</time>
      </trkpt>
      <trkpt lat="43.205417" lon="-1.966724">
        <ele>648.0</ele>
        <time>2017-03-21T20:50:59Z</time>
      </trkpt>
      <trkpt lat="43.204676" lon="-1.966236">
        <ele>664.0</ele>
        <time>2017-03-21T20:51:39Z</time>
      </trkpt>
      <trkpt lat="43.203517" lon="-1.965877">
        <ele>662.0</ele>
        <time>2017-03-21T20:52:19Z</time>
      </trkpt>
      <trkpt lat="43.203118" lon="-1.965016">
        <ele>661.0</ele>
        <time>2017-03-21T20:52:59Z</time>
      </trkpt>
      <trkpt lat="43.202514" lon="-1.964327">
        <ele>665.0</ele>
        <time>2017-03-21T20:53:39Z</time>
      </trkpt>
      <trkpt lat="43.202269" lon="-1.964348">
        <ele>666.0</ele>
        <time>2017-03-21T20:54:19Z</time>
      </trkpt>
      <trkpt lat="43.201786" lon="-1.964085">
        <ele>675.0</ele>
        <time>2017-03-21T20:54:59Z</time>
      </trkpt>
      <trkpt lat="43.200360" lon="-1.963999">
        <ele>691.0</ele>
        <time>2017-03-21T20:55:39Z</time>
      </trkpt>
      <trkpt lat="43.199628" lon="-1.964407">
        <ele>692.0</ele>
        <time>2017-03-21T20:56:19Z</time>
      </trkpt>
      <trkpt lat="43.197305" lon="-1.966681">
        <ele>752.0</ele>
        <time>2017-03-21T20:56:59Z</time>
      </trkpt>
      <trkpt lat="43.197004" lon="-1.966848">
        <ele>760.0</ele>
        <time>2017-03-21T20:57:39Z</time>
      </trkpt>
      <trkpt lat="43.195872" lon="-1.966982">
        <ele>757.0</ele>
        <time>2017-03-21T20:58:19Z</time>
      </trkpt>
      <trkpt lat="43.196599" lon="-1.967411">
        <ele>756.0</ele>
        <time>2017-03-21T20:58:59Z</time>
      </trkpt>
      <trkpt lat="43.196787" lon="-1.967679">
        <ele>751.0</ele>
        <time>2017-03-21T20:59:39Z</time>
      </trkpt>
      <trkpt lat="43.197373" lon="-1.971799">
        <ele>704.0</ele>
        <time>2017-03-21T21:00:19Z</time>
      </trkpt>
      <trkpt lat="43.197508" lon="-1.976048">
        <ele>625.0</ele>
        <time>2017-03-21T21:00:59Z</time>
      </trkpt>
      <trkpt lat="43.197414" lon="-1.976930">
        <ele>615.0</ele>
        <time>2017-03-21T21:01:39Z</time>
      </trkpt>
      <trkpt lat="43.196852" lon="-1.977818">
        <ele>594.0</ele>
        <time>2017-03-21T21:02:19Z</time>
      </trkpt>
      <trkpt lat="43.196007" lon="-1.978601">
        <ele>579.0</ele>
        <time>2017-03-21T21:02:59Z</time>
      </trkpt>
      <trkpt lat="43.195890" lon="-1.978038">
        <ele>574.0</ele>
        <time>2017-03-21T21:03:39Z</time>
      </trkpt>
      <trkpt lat="43.195815" lon="-1.978108">
        <ele>574.0</ele>
        <time>2017-03-21T21:04:19Z</time>
      </trkpt>
      <trkpt lat="43.195694" lon="-1.979567">
        <ele>569.0</ele>
        <time>2017-03-21T21:04:59Z</time>
      </trkpt>
      <trkpt lat="43.195585" lon="-1.979674">
        <ele>567.0</ele>
        <time>2017-03-21T21:05:39Z</time>
      </trkpt>
      <trkpt lat="43.194808" lon="-1.979020">
        <ele>552.0</ele>
        <time>2017-03-21T21:06:19Z</time>
      </trkpt>
      <trkpt lat="43.193799" lon="-1.978977">
        <ele>527.0</ele>
        <time>2017-03-21T21:06:59Z</time>
      </trkpt>
      <trkpt lat="43.193376" lon="-1.978730">
        <ele>505.0</ele>
        <time>2017-03-21T21:07:39Z</time>
      </trkpt>
      <trkpt lat="43.192328" lon="-1.979631">
        <ele>484.0</ele>
        <time>2017-03-21T21:08:19Z</time>
      </trkpt>
      <trkpt lat="43.192054" lon="-1.979642">
        <ele>479.0</ele>
        <time>2017-03-21T21:08:59Z</time>
      </trkpt>
      <trkpt lat="43.191843" lon="-1.979964">
        <ele>485.0</ele>
        <time>2017-03-21T21:09:39Z</time>
      </trkpt>
      <trkpt lat="43.190567" lon="-1.980522">
        <ele>466.0</ele>
        <time>2017-03-21T21:10:19Z</time>
      </trkpt>
      <trkpt lat="43.190250" lon="-1.980602">
        <ele>460.0</ele>
        <time>2017-03-21T21:10:59Z</time>
      </trkpt>
      <trkpt lat="43.188541" lon="-1.980216">
        <ele>420.0</ele>
        <time>2017-03-21T21:11:39Z</time>
      </trkpt>
      <trkpt lat="43.187919" lon="-1.980307">
        <ele>405.0</ele>
        <time>2017-03-21T21:12:19Z</time>
      </trkpt>
      <trkpt lat="43.186562" lon="-1.981900">
        <ele>400.0</ele>
        <time>2017-03-21T21:12:59Z</time>
      </trkpt>
      <trkpt lat="43.185494" lon="-1.982437">
        <ele>367.0</ele>
        <time>2017-03-21T21:13:39Z</time>
      </trkpt>
      <trkpt lat="43.185267" lon="-1.982684">
        <ele>361.0</ele>
        <time>2017-03-21T21:14:19Z</time>
      </trkpt>
      <trkpt lat="43.184469" lon="-1.984207">
        <ele>356.0</ele>
        <time>2017-03-21T21:14:59Z</time>
      </trkpt>
      <trkpt lat="43.182341" lon="-1.984625">
        <ele>327.0</ele>
        <time>2017-03-21T21:15:39Z</time>
      </trkpt>
      <trkpt lat="43.180976" lon="-1.985999">
        <ele>321.0</ele>
        <time>2017-03-21T21:16:19Z</time>
      </trkpt>
      <trkpt lat="43.180628" lon="-1.986122">
        <ele>300.0</ele>
        <time>2017-03-21T21:16:59Z</time>
      </trkpt>
      <trkpt lat="43.179642" lon="-1.985881">
        <ele>264.0</ele>
        <time>2017-03-21T21:17:39Z</time>
      </trkpt>
      <trkpt lat="43.179505" lon="-1.985977">
        <ele>253.0</ele>
        <time>2017-03-21T21:18:19Z</time>
      </trkpt>
      <trkpt lat="43.178880" lon="-1.988187">
        <ele>240.0</ele>
        <time>2017-03-21T21:18:59Z</time>
      </trkpt>
      <trkpt lat="43.178222" lon="-1.989502">
        <ele>216.0</ele>
        <time>2017-03-21T21:19:39Z</time>
      </trkpt>
      <trkpt lat="43.178226" lon="-1.989770">
        <ele>213.0</ele>
        <time>2017-03-21T21:20:19Z</time>
      </trkpt>
      <trkpt lat="43.178657" lon="-1.990237">
        <ele>212.0</ele>
        <time>2017-03-21T21:20:59Z</time>
      </trkpt>
      <trkpt lat="43.179020" lon="-1.990322">
        <ele>217.0</ele>
        <time>2017-03-21T21:21:39Z</time>
      </trkpt>
      <trkpt lat="43.179255" lon="-1.990650">
        <ele>215.0</ele>
        <time>2017-03-21T21:22:19Z</time>
      </trkpt>
      <trkpt lat="43.179631" lon="-1.990827">
        <ele>217.0</ele>
        <time>2017-03-21T21:22:59Z</time>
      </trkpt>
      <trkpt lat="43.180687" lon="-1.992323">
        <ele>189.0</ele>
        <time>2017-03-21T21:23:39Z</time>
      </trkpt>
      <trkpt lat="43.181559" lon="-1.993858">
        <ele>177.0</ele>
        <time>2017-03-21T21:24:19Z</time>
      </trkpt>
      <trkpt lat="43.181559" lon="-1.994061">
        <ele>175.0</ele>
        <time>2017-03-21T21:24:59Z</time>
      </trkpt>
      <trkpt lat="43.182514" lon="-1.995108">
        <ele>174.0</ele>
        <time>2017-03-21T21:25:39Z</time>
      </trkpt>
      <trkpt lat="43.183534" lon="-1.995907">
        <ele>183.0</ele>
        <time>2017-03-21T21:26:19Z</time>
      </trkpt>
      <trkpt lat="43.183953" lon="-1.996073">
        <ele>184.0</ele>
        <time>2017-03-21T21:26:59Z</time>
      </trkpt>
      <trkpt lat="43.184442" lon="-1.995955">
        <ele>180.0</ele>
        <time>2017-03-21T21:27:39Z</time>
      </trkpt>
      <trkpt lat="43.185752" lon="-1.995075">
        <ele>171.0</ele>
        <time>2017-03-21T21:28:19Z</time>
      </trkpt>
      <trkpt lat="43.186472" lon="-1.995285">
        <ele>163.0</ele>
        <time>2017-03-21T21:28:59Z</time>
      </trkpt>
      <trkpt lat="43.187317" lon="-1.995789">
        <ele>159.0</ele>
        <time>2017-03-21T21:29:39Z</time>
      </trkpt>
      <trkpt lat="43.187626" lon="-1.997178">
        <ele>159.0</ele>
        <time>2017-03-21T21:30:19Z</time>
      </trkpt>
      <trkpt lat="43.187418" lon="-1.998369">
        <ele>164.0</ele>
        <time>2017-03-21T21:30:59Z</time>
      </trkpt>
      <trkpt lat="43.186515" lon="-2.001180">
        <ele>133.0</ele>
        <time>2017-03-21T21:31:39Z</time>
      </trkpt>
      <trkpt lat="43.186714" lon="-2.002290">
        <ele>140.0</ele>
        <time>2017-03-21T21:32:19Z</time>
      </trkpt>
      <trkpt lat="43.186159" lon="-2.001464">
        <ele>132.0</ele>
        <time>2017-03-21T21:32:59Z</time>
      </trkpt>
      <trkpt lat="43.186226" lon="-2.000638">
        <ele>131.0</ele>
        <time>2017-03-21T21:33:39Z</time>
      </trkpt>
      <trkpt lat="43.186061" lon="-2.000048">
        <ele>133.0</ele>
        <time>2017-03-21T21:34:19Z</time>
      </trkpt>
      <trkpt lat="43.186198" lon="-1.998294">
        <ele>148.0</ele>
        <time>2017-03-21T21:34:59Z</time>
      </trkpt>
      <trkpt lat="43.186093" lon="-1.997747">
        <ele>148.0</ele>
        <time>2017-03-21T21:35:39Z</time>
      </trkpt>
      <trkpt lat="43.185439" lon="-1.998117">
        <ele>163.0</ele>
        <time>2017-03-21T21:36:19Z</time>
      </trkpt>
      <trkpt lat="43.185087" lon="-2.000075">
        <ele>189.0</ele>
        <time>2017-03-21T21:36:59Z</time>
      </trkpt>
      <trkpt lat="43.184993" lon="-2.000102">
        <ele>189.0</ele>
        <time>2017-03-21T21:37:39Z</time>
      </trkpt>
      <trkpt lat="43.184630" lon="-1.999345">
        <ele>204.0</ele>
        <time>2017-03-21T21:38:19Z</time>
      </trkpt>
      <trkpt lat="43.184395" lon="-2.000091">
        <ele>220.0</ele>
        <time>2017-03-21T21:38:59Z</time>
      </trkpt>
      <trkpt lat="43.184082" lon="-2.000075">
        <ele>234.0</ele>
        <time>2017-03-21T21:39:39Z</time>
      </trkpt>
      <trkpt lat="43.183765" lon="-2.001303">
        <ele>269.0</ele>
        <time>2017-03-21T21:40:19Z</time>
      </trkpt>
      <trkpt lat="43.183002" lon="-1.999785">
        <ele>287.0</ele>
        <time>2017-03-21T21:40:59Z</time>
      </trkpt>
      <trkpt lat="43.182635" lon="-1.999860">
        <ele>304.0</ele>
        <time>2017-03-21T21:41:39Z</time>
      </trkpt>
      <trkpt lat="43.182400" lon="-2.000102">
        <ele>306.0</ele>
        <time>2017-03-21T21:42:19Z</time>
      </trkpt>
      <trkpt lat="43.182854" lon="-1.999978">
        <ele>299.0</ele>
        <time>2017-03-21T21:42:59Z</time>
      </trkpt>
      <trkpt lat="43.183104" lon="-2.001180">
        <ele>302.0</ele>
        <time>2017-03-21T21:43:39Z</time>
      </trkpt>
      <trkpt lat="43.183652" lon="-2.002655">
        <ele>297.0</ele>
        <time>2017-03-21T21:44:19Z</time>
      </trkpt>
      <trkpt lat="43.183832" lon="-2.004055">
        <ele>285.0</ele>
        <time>2017-03-21T21:44:59Z</time>
      </trkpt>
      <trkpt lat="43.183707" lon="-2.004549">
        <ele>295.0</ele>
        <time>2017-03-21T21:45:39Z</time>
      </trkpt>
      <trkpt lat="43.183045" lon="-2.005944">
        <ele>283.0</ele>
        <time>2017-03-21T21:46:19Z</time>
      </trkpt>
      <trkpt lat="43.182412" lon="-2.006464">
        <ele>284.0</ele>
        <time>2017-03-21T21:46:59Z</time>
      </trkpt>
      <trkpt lat="43.181939" lon="-2.007607">
        <ele>282.0</ele>
        <time>2017-03-21T21:47:39Z</time>
      </trkpt>
      <trkpt lat="43.181422" lon="-2.007912">
        <ele>307.0</ele>
        <time>2017-03-21T21:48:19Z</time>
      </trkpt>
      <trkpt lat="43.181246" lon="-2.009355">
        <ele>288.0</ele>
        <time>2017-03-21T21:48:59Z</time>
      </trkpt>
      <trkpt lat="43.180785" lon="-2.009709">
        <ele>294.0</ele>
        <time>2017-03-21T21:49:39Z</time>
      </trkpt>
      <trkpt lat="43.180123" lon="-2.009785">
        <ele>311.0</ele>
        <time>2017-03-21T21:50:19Z</time>
      </trkpt>
      <trkpt lat="43.179842" lon="-2.010085">
        <ele>313.0</ele>
        <time>2017-03-21T21:50:59Z</time>
      </trkpt>
      <trkpt lat="43.179830" lon="-2.010632">
        <ele>308.0</ele>
        <time>2017-03-21T21:51:39Z</time>
      </trkpt>
      <trkpt lat="43.180370" lon="-2.011512">
        <ele>295.0</ele>
        <time>2017-03-21T21:52:19Z</time>
      </trkpt>
      <trkpt lat="43.180382" lon="-2.011995">
        <ele>288.0</ele>
        <time>2017-03-21T21:52:59Z</time>
      </trkpt>
      <trkpt lat="43.180131" lon="-2.012177">
        <ele>285.0</ele>
        <time>2017-03-21T21:53:39Z</time>
      </trkpt>
      <trkpt lat="43.179165" lon="-2.012000">
        <ele>297.0</ele>
        <time>2017-03-21T21:54:19Z</time>
      </trkpt>
      <trkpt lat="43.177909" lon="-2.012300">
        <ele>312.0</ele>
        <time>2017-03-21T21:54:59Z</time>
      </trkpt>
      <trkpt lat="43.177624" lon="-2.012081">
        <ele>320.0</ele>
        <time>2017-03-21T21:55:39Z</time>
      </trkpt>
      <trkpt lat="43.177487" lon="-2.012284">
        <ele>318.0</ele>
        <time>2017-03-21T21:56:19Z</time>
      </trkpt>
      <trkpt lat="43.177585" lon="-2.012933">
        <ele>328.0</ele>
        <time>2017-03-21T21:56:59Z</time>
      </trkpt>
      <trkpt lat="43.177929" lon="-2.013615">
        <ele>326.0</ele>
        <time>2017-03-21T21:57:39Z</time>
      </trkpt>
      <trkpt lat="43.179376" lon="-2.014275">
        <ele>298.0</ele>
        <time>2017-03-21T21:58:19Z</time>
      </trkpt>
      <trkpt lat="43.179904" lon="-2.014779">
        <ele>287.0</ele>
        <time>2017-03-21T21:58:59Z</time>
      </trkpt>
      <trkpt lat="43.180018" lon="-2.015010">
        <ele>291.0</ele>
        <time>2017-03-21T21:59:39Z</time>
      </trkpt>
      <trkpt lat="43.179916" lon="-2.015546">
        <ele>300.0</ele>
        <time>2017-03-21T22:00:19Z</time>
      </trkpt>
      <trkpt lat="43.180135" lon="-2.015852">
        <ele>304.0</ele>
        <time>2017-03-21T22:00:59Z</time>
      </trkpt>
      <trkpt lat="43.180992" lon="-2.016174">
        <ele>296.0</ele>
        <time>2017-03-21T22:01:39Z</time>
      </trkpt>
      <trkpt lat="43.181806" lon="-2.015535">
        <ele>291.0</ele>
        <time>2017-03-21T22:02:19Z</time>
      </trkpt>
      <trkpt lat="43.182279" lon="-2.015374">
        <ele>288.0</ele>
        <time>2017-03-21T22:02:59Z</time>
      </trkpt>
      <trkpt lat="43.182607" lon="-2.015444">
        <ele>297.0</ele>
        <time>2017-03-21T22:03:39Z</time>
      </trkpt>
      <trkpt lat="43.183049" lon="-2.015895">
        <ele>300.0</ele>
        <time>2017-03-21T22:04:19Z</time>
      </trkpt>
      <trkpt lat="43.183335" lon="-2.016817">
        <ele>321.0</ele>
        <time>2017-03-21T22:04:59Z</time>
      </trkpt>
      <trkpt lat="43.184317" lon="-2.016061">
        <ele>298.0</ele>
        <time>2017-03-21T22:05:39Z</time>
      </trkpt>
      <trkpt lat="43.184720" lon="-2.016163">
        <ele>296.0</ele>
        <time>2017-03-21T22:06:19Z</time>
      </trkpt>
      <trkpt lat="43.184978" lon="-2.016571">
        <ele>303.0</ele>
        <time>2017-03-21T22:06:59Z</time>
      </trkpt>
      <trkpt lat="43.185013" lon="-2.017338">
        <ele>312.0</ele>
        <time>2017-03-21T22:07:39Z</time>
      </trkpt>
      <trkpt lat="43.185162" lon="-2.017568">
        <ele>310.0</ele>
        <time>2017-03-21T22:08:19Z</time>
      </trkpt>
      <trkpt lat="43.185905" lon="-2.017912">
        <ele>304.0</ele>
        <time>2017-03-21T22:08:59Z</time>
      </trkpt>
      <trkpt lat="43.186491" lon="-2.016018">
        <ele>300.0</ele>
        <time>2017-03-21T22:09:39Z</time>
      </trkpt>
      <trkpt lat="43.186476" lon="-2.015326">
        <ele>297.0</ele>
        <time>2017-03-21T22:10:19Z</time>
      </trkpt>
      <trkpt lat="43.186139" lon="-2.014672">
        <ele>283.0</ele>
        <time>2017-03-21T22:10:59Z</time>
      </trkpt>
      <trkpt lat="43.186308" lon="-2.014140">
        <ele>284.0</ele>
        <time>2017-03-21T22:11:39Z</time>
      </trkpt>
      <trkpt lat="43.186613" lon="-2.013878">
        <ele>290.0</ele>
        <time>2017-03-21T22:12:19Z</time>
      </trkpt>
      <trkpt lat="43.186965" lon="-2.013894">
        <ele>299.0</ele>
        <time>2017-03-21T22:12:59Z</time>
      </trkpt>
      <trkpt lat="43.187309" lon="-2.013368">
        <ele>293.0</ele>
        <time>2017-03-21T22:13:39Z</time>
      </trkpt>
      <trkpt lat="43.188365" lon="-2.012354">
        <ele>283.0</ele>
        <time>2017-03-21T22:14:19Z</time>
      </trkpt>
      <trkpt lat="43.189077" lon="-2.012231">
        <ele>304.0</ele>
        <time>2017-03-21T22:14:59Z</time>
      </trkpt>
      <trkpt lat="43.189976" lon="-2.011603">
        <ele>302.0</ele>
        <time>2017-03-21T22:15:39Z</time>
      </trkpt>
      <trkpt lat="43.190356" lon="-2.011662">
        <ele>301.0</ele>
        <time>2017-03-21T22:16:19Z</time>
      </trkpt>
      <trkpt lat="43.190821" lon="-2.011930">
        <ele>297.0</ele>
        <time>2017-03-21T22:16:59Z</time>
      </trkpt>
      <trkpt lat="43.191001" lon="-2.012343">
        <ele>296.0</ele>
        <time>2017-03-21T22:17:39Z</time>
      </trkpt>
      <trkpt lat="43.191142" lon="-2.012268">
        <ele>296.0</ele>
        <time>2017-03-21T22:18:19Z</time>
      </trkpt>
      <trkpt lat="43.191748" lon="-2.013041">
        <ele>310.0</ele>
        <time>2017-03-21T22:18:59Z</time>
      </trkpt>
      <trkpt lat="43.192065" lon="-2.013239">
        <ele>316.0</ele>
        <time>2017-03-21T22:19:39Z</time>
      </trkpt>
      <trkpt lat="43.192397" lon="-2.013384">
        <ele>306.0</ele>
        <time>2017-03-21T22:20:19Z</time>
      </trkpt>
      <trkpt lat="43.193395" lon="-2.013379">
        <ele>292.0</ele>
        <time>2017-03-21T22:20:59Z</time>
      </trkpt>
      <trkpt lat="43.193778" lon="-2.013620">
        <ele>277.0</ele>
        <time>2017-03-21T22:21:39Z</time>
      </trkpt>
      <trkpt lat="43.193950" lon="-2.014301">
        <ele>280.0</ele>
        <time>2017-03-21T22:22:19Z</time>
      </trkpt>
      <trkpt lat="43.193676" lon="-2.015659">
        <ele>281.0</ele>
        <time>2017-03-21T22:22:59Z</time>
      </trkpt>
      <trkpt lat="43.193062" lon="-2.016404">
        <ele>288.0</ele>
        <time>2017-03-21T22:23:39Z</time>
      </trkpt>
      <trkpt lat="43.192820" lon="-2.016935">
        <ele>285.0</ele>
        <time>2017-03-21T22:24:19Z</time>
      </trkpt>
      <trkpt lat="43.192284" lon="-2.017424">
        <ele>309.0</ele>
        <time>2017-03-21T22:24:59Z</time>
      </trkpt>
      <trkpt lat="43.192503" lon="-2.018695">
        <ele>276.0</ele>
        <time>2017-03-21T22:25:39Z</time>
      </trkpt>
      <trkpt lat="43.192257" lon="-2.020374">
        <ele>268.0</ele>
        <time>2017-03-21T22:26:19Z</time>
      </trkpt>
      <trkpt lat="43.191901" lon="-2.021023">
        <ele>262.0</ele>
        <time>2017-03-21T22:26:59Z</time>
      </trkpt>
      <trkpt lat="43.191838" lon="-2.021506">
        <ele>258.0</ele>
        <time>2017-03-21T22:27:39Z</time>
      </trkpt>
      <trkpt lat="43.192030" lon="-2.022069">
        <ele>252.0</ele>
        <time>2017-03-21T22:28:19Z</time>
      </trkpt>
      <trkpt lat="43.192476" lon="-2.022675">
        <ele>237.0</ele>
        <time>2017-03-21T22:28:59Z</time>
      </trkpt>
      <trkpt lat="43.192022" lon="-2.024279">
        <ele>249.0</ele>
        <time>2017-03-21T22:29:39Z</time>
      </trkpt>
      <trkpt lat="43.192241" lon="-2.024440">
        <ele>250.0</ele>
        <time>2017-03-21T22:30:19Z</time>
      </trkpt>
      <trkpt lat="43.192667" lon="-2.024419">
        <ele>254.0</ele>
        <time>2017-03-21T22:30:59Z</time>
      </trkpt>
      <trkpt lat="43.193344" lon="-2.024081">
        <ele>244.0</ele>
        <time>2017-03-21T22:31:39Z</time>
      </trkpt>
      <trkpt lat="43.194404" lon="-2.024370">
        <ele>228.0</ele>
        <time>2017-03-21T22:32:19Z</time>
      </trkpt>
      <trkpt lat="43.194404" lon="-2.024086">
        <ele>224.0</ele>
        <time>2017-03-21T22:32:59Z</time>
      </trkpt>
      <trkpt lat="43.195667" lon="-2.022632">
        <ele>213.0</ele>
        <time>2017-03-21T22:33:39Z</time>
      </trkpt>
      <trkpt lat="43.196246" lon="-2.022654">
        <ele>220.0</ele>
        <time>2017-03-21T22:34:19Z</time>
      </trkpt>
      <trkpt lat="43.196578" lon="-2.022520">
        <ele>218.0</ele>
        <time>2017-03-21T22:34:59Z</time>
      </trkpt>
      <trkpt lat="43.197595" lon="-2.022606">
        <ele>206.0</ele>
        <time>2017-03-21T22:35:39Z</time>
      </trkpt>
      <trkpt lat="43.198651" lon="-2.021838">
        <ele>200.0</ele>
        <time>2017-03-21T22:36:19Z</time>
      </trkpt>
      <trkpt lat="43.198960" lon="-2.021838">
        <ele>196.0</ele>
        <time>2017-03-21T22:36:59Z</time>
      </trkpt>
      <trkpt lat="43.199648" lon="-2.022429">
        <ele>186.0</ele>
        <time>2017-03-21T22:37:39Z</time>
      </trkpt>
      <trkpt lat="43.199843" lon="-2.022375">
        <ele>186.0</ele>
        <time>2017-03-21T22:38:19Z</time>
      </trkpt>
      <trkpt lat="43.199859" lon="-2.022160">
        <ele>188.0</ele>
        <time>2017-03-21T22:38:59Z</time>
      </trkpt>
      <trkpt lat="43.199714" lon="-2.021114">
        <ele>191.0</ele>
        <time>2017-03-21T22:39:39Z</time>
      </trkpt>
      <trkpt lat="43.200000" lon="-2.020926">
        <ele>189.0</ele>
        <time>2017-03-21T22:40:19Z</time>
      </trkpt>
      <trkpt lat="43.200891" lon="-2.021098">
        <ele>181.0</ele>
        <time>2017-03-21T22:40:59Z</time>
      </trkpt>
      <trkpt lat="43.201245" lon="-2.021302">
        <ele>179.0</ele>
        <time>2017-03-21T22:41:39Z</time>
      </trkpt>
      <trkpt lat="43.202449" lon="-2.023051">
        <ele>182.0</ele>
        <time>2017-03-21T22:42:19Z</time>
      </trkpt>
      <trkpt lat="43.202074" lon="-2.023662">
        <ele>174.0</ele>
        <time>2017-03-21T22:42:59Z</time>
      </trkpt>
      <trkpt lat="43.201730" lon="-2.025712">
        <ele>161.0</ele>
        <time>2017-03-21T22:43:39Z</time>
      </trkpt>
      <trkpt lat="43.201964" lon="-2.027031">
        <ele>157.0</ele>
        <time>2017-03-21T22:44:19Z</time>
      </trkpt>
      <trkpt lat="43.201925" lon="-2.027653">
        <ele>151.0</ele>
        <time>2017-03-21T22:44:59Z</time>
      </trkpt>
      <trkpt lat="43.203513" lon="-2.030089">
        <ele>137.0</ele>
        <time>2017-03-21T22:45:39Z</time>
      </trkpt>
      <trkpt lat="43.203380" lon="-2.030668">
        <ele>136.0</ele>
        <time>2017-03-21T22:46:19Z</time>
      </trkpt>
      <trkpt lat="43.202817" lon="-2.031162">
        <ele>139.0</ele>
        <time>2017-03-21T22:46:59Z</time>
      </trkpt>
      <trkpt lat="43.202465" lon="-2.032160">
        <ele>124.0</ele>
        <time>2017-03-21T22:47:39Z</time>
      </trkpt>
      <trkpt lat="43.202433" lon="-2.032696">
        <ele>119.0</ele>
        <time>2017-03-21T22:48:19Z</time>
      </trkpt>
      <trkpt lat="43.202613" lon="-2.032921">
        <ele>115.0</ele>
        <time>2017-03-21T22:48:59Z</time>
      </trkpt>
      <trkpt lat="43.203215" lon="-2.033018">
        <ele>109.0</ele>
        <time>2017-03-21T22:49:39Z</time>
      </trkpt>
      <trkpt lat="43.204177" lon="-2.032524">
        <ele>101.0</ele>
        <time>2017-03-21T22:50:19Z</time>
      </trkpt>
      <trkpt lat="43.204795" lon="-2.032374">
        <ele>98.0</ele>
        <time>2017-03-21T22:50:59Z</time>
      </trkpt>
      <trkpt lat="43.205233" lon="-2.032492">
        <ele>87.0</ele>
        <time>2017-03-21T22:51:39Z</time>
      </trkpt>
      <trkpt lat="43.205890" lon="-2.033018">
        <ele>58.0</ele>
        <time>2017-03-21T22:52:19Z</time>
      </trkpt>
      <trkpt lat="43.207337" lon="-2.031988">
        <ele>46.0</ele>
        <time>2017-03-21T22:52:59Z</time>
      </trkpt>
      <trkpt lat="43.208166" lon="-2.031119">
        <ele>53.0</ele>
        <time>2017-03-21T22:53:39Z</time>
      </trkpt>
      <trkpt lat="43.209325" lon="-2.029512">
        <ele>54.0</ele>
        <time>2017-03-21T22:54:19Z</time>
      </trkpt>
      <trkpt lat="43.210240" lon="-2.027943">
        <ele>52.0</ele>
        <time>2017-03-21T22:54:59Z</time>
      </trkpt>
      <trkpt lat="43.211208" lon="-2.024290">
        <ele>52.0</ele>
        <time>2017-03-21T22:55:39Z</time>
      </trkpt>
      <trkpt lat="43.211799" lon="-2.022568">
        <ele>57.0</ele>
        <time>2017-03-21T22:56:19Z</time>
      </trkpt>
      <trkpt lat="43.212029" lon="-2.022249">
        <ele>53.0</ele>
        <time>2017-03-21T22:56:59Z</time>
      </trkpt>
      <trkpt lat="43.212692" lon="-2.023083">
        <ele>46.0</ele>
        <time>2017-03-21T22:57:39Z</time>
      </trkpt>
      <trkpt lat="43.213135" lon="-2.022219">
        <ele>45.0</ele>
        <time>2017-03-21T22:58:19Z</time>
      </trkpt>
      <trkpt lat="43.214088" lon="-2.022179">
        <ele>38.0</ele>
        <time>2017-03-21T22:58:59Z</time>
      </trkpt>
      <trkpt lat="43.214539" lon="-2.022383">
        <ele>33.0</ele>
        <time>2017-03-21T22:59:39Z</time>
      </trkpt>
      <trkpt lat="43.214837" lon="-2.022182">
        <ele>35.0</ele>
        <time>2017-03-21T23:00:19Z</time>
      </trkpt>
      <trkpt lat="43.215001" lon="-2.021509">
        <ele>51.0</ele>
        <time>2017-03-21T23:00:59Z</time>
      </trkpt>
      <trkpt lat="43.215982" lon="-2.021640">
        <ele>51.0</ele>
        <time>2017-03-21T23:01:39Z</time>
      </trkpt>
      <trkpt lat="43.216753" lon="-2.021570">
        <ele>51.0</ele>
        <time>2017-03-21T23:02:19Z</time>
      </trkpt>
    </trkseg>
  </trk></gpx>